Chippewa, MI

10:58 AM EST on December 09, 2019 (GMT -0500)
Chippewa County International

Weather History for KCIU - October, 2019

Change the Weather History Date:

Thursday, October 3, 2019

  Actual Average Record
Temperature  
Mean Temperature 44 °F -  
Max Temperature 46 °F 59 °F 77 °F (2005)
Min Temperature 42 °F 35 °F 22 °F (1981)
Degree Days  
Heating Degree Days 21    
Moisture  
Dew Point 42 °F    
Average Humidity 94    
Maximum Humidity 100    
Minimum Humidity 66    
Precipitation  
Precipitation 0.22 in - - ()
Sea Level Pressure  
Sea Level Pressure 30.06 in    
Wind  
Wind Speed 11 mph ()    
Max Wind Speed 17 mph    
Max Gust Speed 25 mph    
Visibility 6.4 miles    
Events Rain    
Averages and records for this station are not official NWS values.
T = Trace of Precipitation, MM = Missing Value Source: Averaged Metar Reports

Daily Weather History Graph

Daily Weather History Graph

Search for Another Location

Airport or City:

Astronomy

Oct. 03, 2019 Rise Set
Actual Time 7:38 AM EDT 7:14 PM EDT
Civil Twilight 7:08 AM EDT 7:44 PM EDT
Nautical Twilight 6:33 AM EDT 8:18 PM EDT
Astronomical Twilight 5:58 AM EDT 8:54 PM EDT
Moon 1:26 PM EDT (10/3) 10:35 PM EDT (10/3)
Length of Visible Light 12h 35m
Length of Day
11h 35m
Waxing Crescent, 29% of the Moon is Illuminated
Oct 3
Waxing Crescent
Oct 5
First Quarter
Oct 13
Full
Oct 21
Last Quarter
Oct 27
New

Hourly Weather History & Observations

Time (EDT) Temp. Windchill Dew Point Humidity Pressure Visibility Wind Dir Wind Speed Gust Speed Precip Events Conditions
12:56 AM 46.0 °F 39.6 °F 35.1 °F 66% 30.17 in 10.0 mi East 15.0 mph 24.2 mph N/A   Scattered Clouds
1:44 AM 46.4 °F 39.5 °F 35.6 °F 66% 30.12 in 10.0 mi East 17.3 mph 25.3 mph N/A   Overcast
1:56 AM 46.0 °F 40.2 °F 36.0 °F 68% 30.14 in 10.0 mi East 12.7 mph - N/A   Overcast
2:56 AM 45.0 °F 40.1 °F 36.0 °F 71% 30.17 in 10.0 mi East 9.2 mph - N/A   Overcast
3:56 AM 44.1 °F 39.0 °F 39.9 °F 85% 30.13 in 10.0 mi East 9.2 mph - 0.00 in Rain Light Rain
4:56 AM 43.0 °F 35.7 °F 39.0 °F 86% 30.10 in 10.0 mi East 15.0 mph - 0.01 in Rain Light Rain
5:56 AM 43.0 °F 36.4 °F 39.9 °F 89% 30.10 in 10.0 mi East 12.7 mph - 0.00 in Rain Light Rain
6:56 AM 42.1 °F 34.9 °F 41.0 °F 96% 30.08 in 10.0 mi East 13.8 mph - 0.09 in Rain Light Rain
7:56 AM 42.1 °F 35.7 °F 41.0 °F 96% 30.08 in 10.0 mi East 11.5 mph - 0.01 in Rain Light Rain
8:56 AM 42.1 °F 34.9 °F 41.0 °F 96% 30.04 in 5.0 mi East 13.8 mph - 0.02 in Rain Light Rain
9:21 AM 42.8 °F 35.1 °F 41.0 °F 93% 30.02 in 9.0 mi East 16.1 mph - 0.01 in Rain Light Rain
9:41 AM 42.8 °F 35.1 °F 41.0 °F 93% 30.00 in 9.0 mi East 16.1 mph - 0.01 in   Overcast
9:56 AM 42.1 °F 34.2 °F 41.0 °F 96% 30.02 in 6.0 mi East 16.1 mph 21.9 mph 0.01 in Rain Light Rain
10:37 AM 42.8 °F 35.8 °F 42.8 °F 100% 30.00 in 3.0 mi East 13.8 mph - 0.00 in Rain Light Rain
10:56 AM 43.0 °F 36.8 °F 42.1 °F 97% 30.01 in 5.0 mi East 11.5 mph - 0.01 in Rain Light Rain
11:40 AM 44.6 °F 37.4 °F 42.8 °F 93% 29.98 in 2.0 mi East 16.1 mph - 0.00 in Rain Light Rain
11:56 AM 44.1 °F 36.8 °F 43.0 °F 96% 29.99 in 3.0 mi East 16.1 mph - 0.01 in Rain Light Rain
12:56 PM 44.1 °F 37.1 °F 43.0 °F 96% 29.99 in 3.0 mi East 15.0 mph - 0.00 in Rain Light Rain
1:15 PM 44.6 °F 37.8 °F 44.6 °F 100% 29.97 in 2.5 mi ENE 15.0 mph - 0.00 in Rain Light Rain
1:22 PM 44.6 °F 38.8 °F 44.6 °F 100% 29.97 in 3.0 mi East 11.5 mph - 0.00 in Rain Light Rain
1:56 PM 44.1 °F 38.1 °F 44.1 °F 100% 29.99 in 3.0 mi ENE 11.5 mph - 0.01 in Rain Light Rain
2:56 PM 45.0 °F 40.1 °F 44.1 °F 97% 29.98 in 3.0 mi ENE 9.2 mph - 0.00 in Rain Light Rain
3:27 PM 44.6 °F 38.8 °F 44.6 °F 100% 29.96 in 4.0 mi ENE 11.5 mph - 0.00 in Rain Light Rain
3:56 PM 45.0 °F 39.3 °F 44.1 °F 97% 29.98 in 4.0 mi East 11.5 mph - 0.00 in Rain Light Rain
4:26 PM 44.6 °F 38.8 °F 44.6 °F 100% 29.97 in 8.0 mi ENE 11.5 mph - 0.00 in   Overcast
4:56 PM 45.0 °F 40.1 °F 44.1 °F 97% 29.99 in 10.0 mi East 9.2 mph - 0.00 in Rain Light Rain
5:25 PM 44.6 °F 39.2 °F 44.6 °F 100% 29.98 in 10.0 mi ENE 10.4 mph - 0.00 in Rain Light Rain
5:56 PM 45.0 °F 38.9 °F 44.1 °F 97% 30.01 in 7.0 mi NE 12.7 mph - 0.00 in Rain Light Rain
6:28 PM 44.6 °F 39.7 °F 44.6 °F 100% 30.01 in 6.0 mi NE 9.2 mph - 0.00 in Rain Light Rain
6:56 PM 44.1 °F 39.0 °F 43.0 °F 96% 30.04 in 9.0 mi NE 9.2 mph - 0.00 in Rain Light Rain
7:27 PM 42.8 °F 37.5 °F 42.8 °F 100% 30.05 in 2.5 mi NNE 9.2 mph - 0.01 in Rain Light Rain
7:42 PM 42.8 °F 37.5 °F 42.8 °F 100% 30.06 in 3.0 mi North 9.2 mph - 0.02 in Rain Light Rain
7:56 PM 43.0 °F 38.8 °F 42.1 °F 97% 30.09 in 3.0 mi NNE 6.9 mph - 0.02 in Rain Light Rain
8:42 PM 42.8 °F 39.3 °F 42.8 °F 100% 30.10 in 7.0 mi North 5.8 mph - 0.01 in   Overcast
8:56 PM 43.0 °F 39.5 °F 42.1 °F 97% 30.12 in 2.5 mi North 5.8 mph - 0.01 in   Overcast
9:03 PM 42.8 °F 39.3 °F 42.8 °F 100% 30.11 in 3.0 mi North 5.8 mph - 0.00 in Rain Light Rain
9:14 PM 42.8 °F 38.6 °F 42.8 °F 100% 30.11 in 5.0 mi North 6.9 mph - 0.00 in Rain Light Rain
9:26 PM 42.8 °F 40.1 °F 42.8 °F 100% 30.12 in 7.0 mi North 4.6 mph - 0.00 in   Overcast
9:41 PM 42.8 °F 40.1 °F 42.8 °F 100% 30.12 in 10.0 mi North 4.6 mph - 0.00 in   Overcast
9:56 PM 43.0 °F 39.5 °F 43.0 °F 100% 30.15 in 10.0 mi North 5.8 mph - 0.00 in   Overcast
10:56 PM 43.0 °F 41.3 °F 43.0 °F 100% 30.17 in 7.0 mi NW 3.5 mph - 0.00 in Rain Light Rain
11:22 PM 42.8 °F 41.1 °F 42.8 °F 100% 30.16 in 7.0 mi NW 3.5 mph - 0.00 in Rain Light Rain
11:56 PM 43.0 °F 41.3 °F 43.0 °F 100% 30.19 in 5.0 mi North 3.5 mph - 0.02 in Rain Light Rain